ISS (ZARYA) 1 25544U 98067A 25353.44148582 .00006778 00000+0 12809-3 0 9994 2 25544 51.6317 109.2912 0003173 271.3280 88.7345 15.49667075543890 CSS (TIANHE) 1 48274U 21035A 25353.63172524 .00019695 00000+0 24482-3 0 9996 2 48274 41.4685 334.8574 0007706 91.7965 268.3756 15.59475572265107 ISS (NAUKA) 1 49044U 21066A 25353.44148583 .00006778 00000+0 12809-3 0 9991 2 49044 51.6317 109.2912 0003173 271.3280 88.7345 15.49667075230445 FREGAT DEB 1 49271U 11037PF 25352.23842730 .00003914 00000+0 89537-2 0 9991 2 49271 51.6484 183.1727 0862315 235.6695 115.9626 12.34485936202619 CSS (WENTIAN) 1 53239U 22085A 25353.37556208 .00020582 00000+0 25572-3 0 9993 2 53239 41.4684 336.4137 0007729 89.1398 271.0326 15.59465114173846 CSS (MENGTIAN) 1 54216U 22143A 25353.37556208 .00020582 00000+0 25572-3 0 9994 2 54216 41.4684 336.4137 0007729 89.1398 271.0326 15.59465114158643 SHENZHOU-20 (SZ-20) 1 63632U 25082A 25353.37556208 .00020582 00000+0 25572-3 0 9991 2 63632 41.4684 336.4137 0007729 89.1398 271.0326 15.59465114255306 PROGRESS-MS 31 1 64751U 25146A 25353.44148583 .00006778 00000+0 12809-3 0 9996 2 64751 51.6317 109.2912 0003173 271.3280 88.7345 15.49667075 6752 TIANZHOU-9 1 64786U 25149A 25353.37556208 .00020582 00000+0 25572-3 0 9996 2 64786 41.4684 336.4137 0007729 89.1398 271.0326 15.59465114255307 CREW DRAGON 11 1 65077U 25166A 25353.44148583 .00006778 00000+0 12809-3 0 9990 2 65077 51.6317 109.2912 0003173 271.3280 88.7345 15.49667075 2143 DRAGON CRS-33 1 65304U 25186A 25353.44148583 .00006778 00000+0 12809-3 0 9995 2 65304 51.6317 109.2912 0003173 271.3280 88.7345 15.49667075 111 PROGRESS-MS 32 1 65586U 25204A 25353.44148583 .00006778 00000+0 12809-3 0 9998 2 65586 51.6317 109.2912 0003173 271.3280 88.7345 15.49667075 270 CYGNUS NG-23 1 65616U 25208A 25353.44148583 .00006778 00000+0 12809-3 0 9996 2 65616 51.6317 109.2912 0003173 271.3280 88.7345 15.49667075 229 DRAGONFLY 1 65729U 98067XH 25353.59934995 .00144123 00000+0 96899-3 0 9998 2 65729 51.6251 100.5779 0007280 320.5398 39.5070 15.74182800 14248 1998-067XK 1 65731U 98067XK 25352.60392310 .00090673 00000+0 83588-3 0 9992 2 65731 51.6292 107.4546 0004791 283.3796 76.6665 15.66848038 14061 RSP-03 1 65732U 98067XL 25353.42469933 .00106087 00000+0 84699-3 0 9991 2 65732 51.6265 102.4221 0005658 294.5755 65.4652 15.70283101 14217 GHS-01 1 65733U 98067XM 25353.72697633 .00188446 00000+0 10728-2 0 9995 2 65733 51.6273 99.1864 0008343 325.0318 35.0134 15.77819432 14285 YOTSUBA-KULOVER 1 65941U 98067XN 25353.43930380 .00050991 00000+0 61317-3 0 9997 2 65941 51.6289 106.2819 0001753 320.2615 39.8249 15.60329664 10907 BOTAN 1 65942U 98067XP 25353.36522579 .00083736 00000+0 85845-3 0 9992 2 65942 51.6281 105.7870 0002892 295.6773 64.3923 15.64228558 10902 E-KAGAKU-1 1 65943U 98067XQ 25352.35057484 .00070368 00000+0 84620-3 0 9996 2 65943 51.6302 111.7666 0001345 249.8249 110.2600 15.60193795 10732 HRC MONOBLOCK CAMERA 1 66052U 98067XR 25352.95182665 .00030942 00000+0 46534-3 0 9990 2 66052 51.6297 110.5221 0002633 211.9232 148.1600 15.54565744 9800 HTV-X1 1 66174U 25241A 25353.44148583 .00006778 00000+0 12809-3 0 9993 2 66174 51.6317 109.2912 0003173 271.3280 88.7345 15.49667075 511 SZ-21 MODULE 1 66515U 25246C 25353.24981399 .00021457 00000+0 23433-3 0 9991 2 66515 41.4773 336.3242 0005734 295.0263 64.9981 15.62811821 5467 SHENZHOU-22 1 66645U 25272A 25353.37556208 .00020582 00000+0 25572-3 0 9999 2 66645 41.4684 336.4137 0007729 89.1398 271.0326 15.59465114263571 SOYUZ-MS 28 1 66664U 25275A 25353.44148582 .00006778 00000+0 12809-3 0 9993 2 66664 51.6317 109.2912 0003173 271.3280 88.7345 15.49667075 3484 1998-067XS 1 66906U 98067XS 25353.36683698 .00020670 00000+0 35748-3 0 9998 2 66906 51.6312 109.5436 0003058 233.4927 126.5781 15.50914025 2645 1998-067XT 1 66907U 98067XT 25353.48808759 .00047666 00000+0 77339-3 0 9995 2 66907 51.6306 108.8528 0003998 265.7173 94.3360 15.52255247 2660 1998-067XU 1 66908U 98067XU 25352.58606995 .00054298 00000+0 87908-3 0 9996 2 66908 51.6306 113.3296 0003983 260.0245 100.0295 15.52259493 2520 SILVERSAT 1 66909U 98067XV 25353.55080352 .00049748 00000+0 79912-3 0 9998 2 66909 51.6306 108.5226 0003839 268.6960 91.3590 15.52516520 2671 1998-067XW 1 66910U 98067XW 25353.54901825 .00043130 00000+0 69409-3 0 9995 2 66910 51.6305 108.5102 0004382 243.3936 116.6605 15.52526300 2677 1998-067XX 1 66911U 98067XX 25353.48246882 .00054082 00000+0 85487-3 0 9996 2 66911 51.6303 108.8169 0003973 252.7574 107.2982 15.52926927 2650 1998-067XY 1 66912U 98067XY 25353.61960698 .00038197 00000+0 63264-3 0 9998 2 66912 51.6307 108.2310 0004012 260.8810 99.1725 15.51780846 2678